| time (UTC) | temp F | wind direction | speed MPH | gust MPH | rain 1hr in | rain 24hr in | rain mn in | humidity % | barometer mb |
| 20260906183320 | 81 | 141 | 1.0 | 3.0 | 0.00 | 0.11 | 0.01 | 78 | 1014.3 |
| 20260906183119 | 81 | 143 | 0.0 | 2.0 | 0.00 | 0.11 | 0.01 | 78 | 1014.3 |
| 20260906182719 | 81 | 141 | 0.0 | 2.0 | 0.00 | 0.11 | 0.01 | 80 | 1014.3 |
| 20260906182521 | 81 | 219 | 0.0 | 2.0 | 0.00 | 0.11 | 0.01 | 79 | 1014.3 |
| 20260906182320 | 80 | 219 | 0.0 | 2.0 | 0.00 | 0.11 | 0.01 | 82 | 1014.2 |
| 20260906182119 | 80 | 220 | 0.0 | 2.0 | 0.00 | 0.11 | 0.01 | 81 | 1014.2 |
| 20260906181926 | 80 | 220 | 0.0 | 2.0 | 0.00 | 0.11 | 0.01 | 78 | 1014.3 |
| 20260906181720 | 80 | 255 | 0.0 | 2.0 | 0.00 | 0.11 | 0.01 | 79 | 1014.4 |
| 20260906181519 | 80 | 255 | 0.0 | 3.0 | 0.00 | 0.11 | 0.01 | 79 | 1014.5 |
| 20260906181320 | 80 | 255 | 1.0 | 4.0 | 0.00 | 0.11 | 0.01 | 78 | 1014.5 |
| 20260906181121 | 80 | 256 | 1.0 | 4.0 | 0.00 | 0.11 | 0.01 | 78 | 1014.5 |
| 20260906180919 | 80 | 255 | 1.0 | 4.0 | 0.00 | 0.11 | 0.01 | 77 | 1014.6 |
| 20260906180720 | 80 | 255 | 1.0 | 4.0 | 0.00 | 0.11 | 0.01 | 77 | 1014.6 |
| 20260906180519 | 80 | 312 | 1.0 | 4.0 | 0.00 | 0.11 | 0.01 | 79 | 1014.6 |
| 20260906180316 | 80 | 324 | 1.0 | 4.0 | 0.00 | 0.11 | 0.01 | 79 | 1014.6 |
| 20260906180115 | 80 | 83 | 1.0 | 2.0 | 0.00 | 0.11 | 0.01 | 81 | 1014.6 |
| 20260906175715 | 80 | 109 | 0.0 | 2.0 | 0.00 | 0.11 | 0.01 | 79 | 1014.6 |
| 20260906175312 | 80 | 267 | 0.0 | 2.0 | 0.00 | 0.11 | 0.01 | 79 | 1014.6 |
| 20260906175112 | 80 | 267 | 0.0 | 2.0 | 0.00 | 0.11 | 0.01 | 78 | 1014.7 |
| 20260906174912 | 80 | 267 | 0.0 | 3.0 | 0.00 | 0.11 | 0.01 | 78 | 1014.7 |
| 20260906174709 | 80 | 267 | 0.0 | 3.0 | 0.00 | 0.11 | 0.01 | 80 | 1014.7 |
| 20260906174308 | 80 | 267 | 1.0 | 3.0 | 0.00 | 0.11 | 0.01 | 81 | 1014.9 |
| 20260906174108 | 80 | 267 | 0.0 | 3.0 | 0.00 | 0.11 | 0.01 | 81 | 1014.9 |
| 20260906173908 | 80 | 140 | 1.0 | 3.0 | 0.00 | 0.11 | 0.01 | 81 | 1014.9 |
| 20260906173706 | 80 | 140 | 1.0 | 3.0 | 0.00 | 0.11 | 0.01 | 80 | 1014.9 |
| 20260906173505 | 80 | 140 | 1.0 | 4.0 | 0.00 | 0.11 | 0.01 | 80 | 1014.9 |
| 20260906173306 | 80 | 140 | 1.0 | 4.0 | 0.00 | 0.11 | 0.01 | 80 | 1015.0 |
| 20260906172906 | 79 | 140 | 1.0 | 4.0 | 0.00 | 0.11 | 0.01 | 80 | 1015.0 |
| 20260906172707 | 79 | 140 | 0.0 | 4.0 | 0.00 | 0.11 | 0.01 | 81 | 1015.0 |
| 20260906172505 | 79 | 106 | 0.0 | 2.0 | 0.00 | 0.11 | 0.01 | 81 | 1014.9 |
| 20260906172306 | 79 | 106 | 0.0 | 2.0 | 0.00 | 0.11 | 0.01 | 82 | 1014.9 |
| 20260906172105 | 79 | 105 | 0.0 | 1.0 | 0.00 | 0.11 | 0.01 | 83 | 1014.9 |
| 20260906171905 | 79 | 105 | 0.0 | 1.0 | 0.00 | 0.11 | 0.01 | 84 | 1014.9 |
| 20260906171704 | 79 | 105 | 0.0 | 1.0 | 0.00 | 0.11 | 0.01 | 83 | 1015.0 |
| 20260906171301 | 79 | 105 | 0.0 | 1.0 | 0.00 | 0.11 | 0.01 | 83 | 1015.0 |
| 20260906171100 | 79 | 105 | 0.0 | 2.0 | 0.00 | 0.11 | 0.01 | 82 | 1015.0 |
| 20260906170857 | 79 | 105 | 0.0 | 2.0 | 0.00 | 0.11 | 0.01 | 82 | 1014.9 |
| 20260906170657 | 79 | 105 | 0.0 | 2.0 | 0.00 | 0.11 | 0.01 | 82 | 1014.9 |
| 20260906170453 | 79 | 105 | 0.0 | 2.0 | 0.00 | 0.11 | 0.01 | 82 | 1014.9 |
| 20260906170253 | 79 | 105 | 0.0 | 2.0 | 0.00 | 0.11 | 0.01 | 81 | 1014.9 |
| 20260906170052 | 79 | 105 | 0.0 | 2.0 | 0.00 | 0.11 | 0.01 | 81 | 1014.9 |
| 20260906165651 | 79 | 146 | 0.0 | 0.0 | 0.00 | 0.11 | 0.01 | 83 | 1014.9 |
| 20260906165450 | 79 | 146 | 0.0 | 0.0 | 0.00 | 0.11 | 0.01 | 84 | 1014.9 |
| 20260906165250 | 79 | 146 | 0.0 | 0.0 | 0.00 | 0.11 | 0.01 | 83 | 1015.0 |
| 20260906165049 | 79 | 146 | 0.0 | 2.0 | 0.00 | 0.11 | 0.01 | 83 | 1015.0 |
| 20260906164849 | 79 | 145 | 0.0 | 2.0 | 0.00 | 0.11 | 0.01 | 82 | 1015.0 |
| 20260906164646 | 79 | 145 | 0.0 | 2.0 | 0.00 | 0.11 | 0.01 | 82 | 1015.0 |
| 20260906164443 | 79 | 146 | 0.0 | 3.0 | 0.00 | 0.11 | 0.01 | 82 | 1015.0 |
| 20260906164243 | 79 | 145 | 0.0 | 3.0 | 0.00 | 0.11 | 0.01 | 82 | 1015.0 |
| 20260906164041 | 79 | 144 | 0.0 | 3.0 | 0.00 | 0.11 | 0.01 | 82 | 1015.0 |
| 20260906163842 | 79 | 144 | 0.0 | 3.0 | 0.00 | 0.11 | 0.01 | 83 | 1015.0 |
| 20260906163640 | 79 | 144 | 0.0 | 3.0 | 0.00 | 0.11 | 0.01 | 82 | 1014.9 |
| 20260906163440 | 79 | 198 | 0.0 | 1.0 | 0.00 | 0.11 | 0.01 | 84 | 1014.8 |
| 20260906163237 | 79 | 198 | 0.0 | 1.0 | 0.00 | 0.11 | 0.01 | 84 | 1014.9 |
| 20260906163035 | 79 | 196 | 0.0 | 0.0 | 0.00 | 0.11 | 0.01 | 84 | 1014.9 |
| 20260906162837 | 79 | 196 | 0.0 | 0.0 | 0.00 | 0.11 | 0.01 | 84 | 1014.9 |
| 20260906162434 | 79 | 196 | 0.0 | 0.0 | 0.00 | 0.11 | 0.01 | 83 | 1014.9 |
| 20260906162031 | 79 | 196 | 0.0 | 1.0 | 0.00 | 0.11 | 0.01 | 83 | 1014.9 |
| 20260906161629 | 79 | 196 | 0.0 | 1.0 | 0.00 | 0.11 | 0.01 | 83 | 1014.9 |
| 20260906161427 | 79 | 196 | 0.0 | 1.0 | 0.00 | 0.11 | 0.01 | 83 | 1015.0 |
| 20260906161228 | 79 | 195 | 0.0 | 3.0 | 0.00 | 0.11 | 0.01 | 84 | 1015.0 |
| 20260906161027 | 79 | 196 | 1.0 | 3.0 | 0.00 | 0.11 | 0.01 | 83 | 1015.0 |
| 20260906160221 | 79 | 98 | 0.0 | 2.0 | 0.00 | 0.11 | 0.01 | 81 | 1014.9 |
| 20260906160022 | 79 | 89 | 0.0 | 2.0 | 0.00 | 0.11 | 0.01 | 82 | 1014.9 |
| 20260906155822 | 79 | 89 | 0.0 | 2.0 | 0.00 | 0.11 | 0.01 | 81 | 1014.9 |
| 20260906155621 | 79 | 89 | 0.0 | 2.0 | 0.00 | 0.11 | 0.01 | 81 | 1014.9 |
| 20260906155422 | 79 | 89 | 0.0 | 2.0 | 0.00 | 0.11 | 0.01 | 81 | 1015.0 |
| 20260906155219 | 79 | 88 | 0.0 | 2.0 | 0.00 | 0.11 | 0.01 | 81 | 1015.1 |
| 20260906155020 | 79 | 88 | 0.0 | 2.0 | 0.00 | 0.11 | 0.01 | 82 | 1015.1 |
| 20260906154820 | 79 | 88 | 0.0 | 0.0 | 0.00 | 0.11 | 0.01 | 82 | 1015.1 |
| 20260906154618 | 79 | 88 | 0.0 | 5.0 | 0.00 | 0.11 | 0.01 | 82 | 1015.2 |
| 20260906154417 | 79 | 88 | 0.0 | 5.0 | 0.00 | 0.11 | 0.01 | 82 | 1015.2 |
| 20260906154218 | 79 | 88 | 0.0 | 5.0 | 0.00 | 0.11 | 0.01 | 82 | 1015.2 |
| 20260906153815 | 79 | 88 | 1.0 | 5.0 | 0.00 | 0.11 | 0.01 | 84 | 1015.2 |
| 20260906153416 | 79 | 286 | 0.0 | 3.0 | 0.00 | 0.11 | 0.01 | 84 | 1015.3 |
| 20260906153213 | 79 | 286 | 0.0 | 4.0 | 0.00 | 0.11 | 0.01 | 83 | 1015.4 |
| 20260906153012 | 79 | 283 | 0.0 | 4.0 | 0.00 | 0.11 | 0.01 | 83 | 1015.3 |
| 20260906152811 | 79 | 130 | 0.0 | 4.0 | 0.00 | 0.11 | 0.01 | 83 | 1015.3 |
| 20260906152614 | 79 | 124 | 0.0 | 4.0 | 0.00 | 0.11 | 0.01 | 82 | 1015.4 |
| 20260906152212 | 78 | 153 | 0.0 | 4.0 | 0.00 | 0.11 | 0.01 | 84 | 1015.4 |
| 20260906152012 | 78 | 153 | 0.0 | 4.0 | 0.00 | 0.11 | 0.01 | 84 | 1015.4 |
| 20260906151810 | 78 | 153 | 0.0 | 4.0 | 0.00 | 0.11 | 0.01 | 84 | 1015.4 |
| 20260906151609 | 78 | 154 | 0.0 | 4.0 | 0.00 | 0.11 | 0.01 | 83 | 1015.4 |
| 20260906151207 | 78 | 265 | 0.0 | 2.0 | 0.00 | 0.11 | 0.01 | 84 | 1015.3 |
| 20260906151007 | 78 | 248 | 0.0 | 2.0 | 0.00 | 0.11 | 0.01 | 82 | 1015.4 |
| 20260906150807 | 78 | 248 | 0.0 | 2.0 | 0.00 | 0.11 | 0.01 | 83 | 1015.4 |
| 20260906150607 | 78 | 248 | 0.0 | 4.0 | 0.00 | 0.11 | 0.01 | 83 | 1015.4 |
| 20260906150407 | 78 | 248 | 0.0 | 4.0 | 0.00 | 0.11 | 0.01 | 84 | 1015.4 |
| 20260906150205 | 78 | 248 | 0.0 | 4.0 | 0.00 | 0.11 | 0.01 | 84 | 1015.4 |
| 20260906150005 | 78 | 248 | 0.0 | 4.0 | 0.00 | 0.11 | 0.01 | 82 | 1015.4 |
| 20260906145802 | 78 | 248 | 0.0 | 4.0 | 0.00 | 0.11 | 0.01 | 84 | 1015.4 |
| 20260906145559 | 78 | 269 | 0.0 | 3.0 | 0.00 | 0.11 | 0.01 | 85 | 1015.3 |
| 20260906145359 | 78 | 268 | 0.0 | 3.0 | 0.00 | 0.11 | 0.01 | 85 | 1015.3 |
| 20260906145158 | 78 | 269 | 0.0 | 3.0 | 0.00 | 0.11 | 0.01 | 85 | 1015.3 |
| 20260906144957 | 78 | 164 | 0.0 | 3.0 | 0.01 | 0.11 | 0.01 | 84 | 1015.3 |
| 20260906144758 | 78 | 146 | 0.0 | 2.0 | 0.01 | 0.11 | 0.01 | 85 | 1015.2 |
| 20260906144556 | 78 | 146 | 0.0 | 2.0 | 0.01 | 0.11 | 0.01 | 85 | 1015.2 |
| 20260906144354 | 78 | 146 | 0.0 | 2.0 | 0.01 | 0.11 | 0.01 | 84 | 1015.2 |
| 20260906144157 | 78 | 146 | 0.0 | 2.0 | 0.01 | 0.11 | 0.01 | 85 | 1015.2 |
| 20260906143956 | 78 | 146 | 0.0 | 2.0 | 0.01 | 0.11 | 0.01 | 85 | 1015.1 |
| 20260906143754 | 78 | 146 | 0.0 | 2.0 | 0.01 | 0.11 | 0.01 | 85 | 1015.1 |
| 20260906143556 | 78 | 146 | 0.0 | 2.0 | 0.01 | 0.11 | 0.01 | 84 | 1015.1 |
| 20260906143356 | 78 | 146 | 0.0 | 2.0 | 0.01 | 0.11 | 0.01 | 84 | 1015.1 |
| 20260906143155 | 78 | 146 | 0.0 | 2.0 | 0.01 | 0.11 | 0.01 | 84 | 1015.0 |
| 20260906142956 | 78 | 148 | 0.0 | 2.0 | 0.01 | 0.11 | 0.01 | 85 | 1015.0 |
| 20260906142556 | 78 | 148 | 0.0 | 2.0 | 0.01 | 0.11 | 0.01 | 85 | 1015.0 |
| 20260906142353 | 78 | 117 | 0.0 | 1.0 | 0.01 | 0.11 | 0.01 | 87 | 1015.0 |
| 20260906141951 | 78 | 115 | 0.0 | 5.0 | 0.01 | 0.11 | 0.01 | 84 | 1014.8 |
| 20260906141749 | 78 | 115 | 0.0 | 5.0 | 0.01 | 0.11 | 0.01 | 85 | 1014.7 |
| 20260906141547 | 78 | 115 | 0.0 | 5.0 | 0.01 | 0.11 | 0.01 | 86 | 1014.6 |
| 20260906141347 | 78 | 115 | 1.0 | 5.0 | 0.01 | 0.11 | 0.01 | 87 | 1014.6 |
| 20260906140948 | 77 | 108 | 0.0 | 2.0 | 0.01 | 0.11 | 0.01 | 87 | 1014.7 |
| 20260906140747 | 77 | 121 | 0.0 | 3.0 | 0.01 | 0.11 | 0.01 | 87 | 1014.7 |
| 20260906140545 | 77 | 118 | 0.0 | 3.0 | 0.01 | 0.11 | 0.01 | 87 | 1014.8 |
| 20260906140344 | 77 | 118 | 0.0 | 3.0 | 0.01 | 0.11 | 0.01 | 88 | 1014.8 |
| 20260906135941 | 77 | 118 | 0.0 | 3.0 | 0.01 | 0.11 | 0.01 | 87 | 1014.8 |
| 20260906135740 | 77 | 315 | 0.0 | 3.0 | 0.01 | 0.11 | 0.01 | 88 | 1014.8 |
| 20260906135540 | 77 | 189 | 0.0 | 1.0 | 0.01 | 0.11 | 0.01 | 91 | 1014.9 |
| 20260906135338 | 76 | 189 | 0.0 | 1.0 | 0.01 | 0.11 | 0.01 | 91 | 1014.8 |
| 20260906134933 | 76 | 194 | 0.0 | 1.0 | 0.00 | 0.10 | 0.00 | 91 | 1014.7 |
| 20260906134734 | 76 | 193 | 0.0 | 1.0 | 0.00 | 0.10 | 0.00 | 91 | 1014.7 |
| 20260906134531 | 76 | 194 | 0.0 | 1.0 | 0.00 | 0.10 | 0.00 | 91 | 1014.6 |
| 20260906134333 | 76 | 178 | 0.0 | 0.0 | 0.00 | 0.10 | 0.00 | 91 | 1014.6 |
| 20260906134131 | 75 | 179 | 0.0 | 0.0 | 0.00 | 0.10 | 0.00 | 91 | 1014.6 |
| 20260906133932 | 75 | 178 | 0.0 | 0.0 | 0.00 | 0.10 | 0.00 | 92 | 1014.7 |
| 20260906133731 | 75 | 179 | 0.0 | 2.0 | 0.00 | 0.10 | 0.00 | 92 | 1014.6 |
| 20260906133530 | 75 | 179 | 0.0 | 2.0 | 0.00 | 0.10 | 0.00 | 92 | 1014.5 |
| 20260906133329 | 75 | 179 | 0.0 | 2.0 | 0.00 | 0.10 | 0.00 | 92 | 1014.5 |
| 20260906133128 | 75 | 179 | 0.0 | 2.0 | 0.00 | 0.10 | 0.00 | 93 | 1014.4 |
| 20260906132929 | 75 | 179 | 0.0 | 2.0 | 0.00 | 0.10 | 0.00 | 93 | 1014.4 |
| 20260906132728 | 75 | 179 | 0.0 | 2.0 | 0.00 | 0.10 | 0.00 | 93 | 1014.4 |
| 20260906132128 | 74 | 178 | 0.0 | 3.0 | 0.00 | 0.10 | 0.00 | 94 | 1014.5 |
| 20260906131924 | 74 | 178 | 0.0 | 3.0 | 0.00 | 0.10 | 0.00 | 94 | 1014.6 |
| 20260906131723 | 74 | 178 | 0.0 | 3.0 | 0.00 | 0.10 | 0.00 | 94 | 1014.6 |
| 20260906131520 | 74 | 178 | 0.0 | 3.0 | 0.00 | 0.10 | 0.00 | 95 | 1014.6 |
| 20260906131118 | 74 | 180 | 0.0 | 1.0 | 0.00 | 0.10 | 0.00 | 95 | 1014.6 |
| 20260906130917 | 74 | 186 | 0.0 | 2.0 | 0.00 | 0.10 | 0.00 | 95 | 1014.7 |
| 20260906130718 | 74 | 187 | 0.0 | 2.0 | 0.00 | 0.10 | 0.00 | 95 | 1014.6 |
| 20260906130517 | 74 | 187 | 0.0 | 2.0 | 0.00 | 0.10 | 0.00 | 95 | 1014.7 |
| 20260906130315 | 74 | 187 | 0.0 | 2.0 | 0.00 | 0.10 | 0.00 | 95 | 1014.7 |
| 20260906125915 | 74 | 186 | 0.0 | 2.0 | 0.00 | 0.10 | 0.00 | 95 | 1014.7 |
| 20260906125513 | 74 | 186 | 0.0 | 2.0 | 0.00 | 0.10 | 0.00 | 95 | 1014.7 |
| 20260906125313 | 74 | 186 | 0.0 | 2.0 | 0.00 | 0.10 | 0.00 | 95 | 1014.7 |
| 20260906125113 | 74 | 186 | 0.0 | 2.0 | 0.00 | 0.10 | 0.00 | 95 | 1014.6 |
| 20260906124913 | 73 | 186 | 0.0 | 2.0 | 0.00 | 0.10 | 0.00 | 95 | 1014.6 |
| 20260906124713 | 73 | 186 | 0.0 | 0.0 | 0.00 | 0.10 | 0.00 | 95 | 1014.5 |
| 20260906124112 | 73 | 186 | 0.0 | 0.0 | 0.00 | 0.10 | 0.00 | 95 | 1014.5 |
| 20260906123911 | 73 | 186 | 0.0 | 0.0 | 0.00 | 0.10 | 0.00 | 95 | 1014.5 |
| 20260906123710 | 73 | 186 | 0.0 | 1.0 | 0.00 | 0.10 | 0.00 | 95 | 1014.5 |
| 20260906123510 | 73 | 186 | 0.0 | 2.0 | 0.00 | 0.10 | 0.00 | 95 | 1014.3 |
| 20260906123312 | 73 | 186 | 0.0 | 2.0 | 0.00 | 0.10 | 0.00 | 95 | 1014.3 |
| 20260906123111 | 73 | 186 | 0.0 | 2.0 | 0.00 | 0.10 | 0.00 | 95 | 1014.4 |
| 20260906122911 | 73 | 186 | 0.0 | 2.0 | 0.00 | 0.10 | 0.00 | 95 | 1014.3 |
| 20260906122710 | 73 | 186 | 0.0 | 2.0 | 0.00 | 0.10 | 0.00 | 95 | 1014.3 |
| 20260906122508 | 73 | 36 | 0.0 | 0.0 | 0.00 | 0.10 | 0.00 | 95 | 1014.3 |
| 20260906122106 | 73 | 36 | 0.0 | 0.0 | 0.00 | 0.10 | 0.00 | 95 | 1014.4 |
| 20260906121705 | 73 | 36 | 0.0 | 0.0 | 0.00 | 0.10 | 0.00 | 95 | 1014.4 |
| 20260906121504 | 73 | 36 | 0.0 | 0.0 | 0.00 | 0.10 | 0.00 | 95 | 1014.4 |
| 20260906121102 | 73 | 36 | 0.0 | 0.0 | 0.00 | 0.10 | 0.00 | 95 | 1014.4 |
| 20260906120901 | 73 | 36 | 0.0 | 0.0 | 0.00 | 0.10 | 0.00 | 95 | 1014.5 |
| 20260906120701 | 73 | 36 | 0.0 | 0.0 | 0.00 | 0.10 | 0.00 | 95 | 1014.4 |
| 20260906120501 | 73 | 36 | 0.0 | 0.0 | 0.00 | 0.10 | 0.00 | 95 | 1014.4 |
| 20260906120105 | 73 | 36 | 0.0 | 0.0 | 0.00 | 0.10 | 0.00 | 95 | 1014.4 |
| 20260906115900 | 73 | 36 | 0.0 | 0.0 | 0.00 | 0.10 | 0.00 | 95 | 1014.4 |
| 20260906115700 | 73 | 36 | 0.0 | 0.0 | 0.00 | 0.10 | 0.00 | 95 | 1014.4 |
| 20260906115100 | 73 | 36 | 0.0 | 0.0 | 0.00 | 0.10 | 0.00 | 95 | 1014.5 |
| 20260906114855 | 73 | 36 | 0.0 | 0.0 | 0.00 | 0.10 | 0.00 | 95 | 1014.5 |
| 20260906114656 | 73 | 36 | 0.0 | 0.0 | 0.00 | 0.10 | 0.00 | 95 | 1014.4 |
| 20260906114455 | 73 | 36 | 0.0 | 0.0 | 0.00 | 0.10 | 0.00 | 95 | 1014.4 |
| 20260906114254 | 73 | 36 | 0.0 | 0.0 | 0.00 | 0.10 | 0.00 | 95 | 1014.4 |
| 20260906114051 | 72 | 36 | 0.0 | 0.0 | 0.00 | 0.10 | 0.00 | 95 | 1014.5 |
| 20260906113850 | 72 | 36 | 0.0 | 0.0 | 0.00 | 0.10 | 0.00 | 95 | 1014.5 |
| 20260906113650 | 73 | 36 | 0.0 | 0.0 | 0.00 | 0.10 | 0.00 | 95 | 1014.4 |
| 20260906113249 | 72 | 36 | 0.0 | 1.0 | 0.00 | 0.10 | 0.00 | 95 | 1014.3 |
| 20260906113047 | 72 | 36 | 0.0 | 1.0 | 0.00 | 0.10 | 0.00 | 95 | 1014.3 |
| 20260906112846 | 72 | 36 | 0.0 | 1.0 | 0.00 | 0.10 | 0.00 | 95 | 1014.2 |
| 20260906112645 | 72 | 36 | 0.0 | 1.0 | 0.00 | 0.10 | 0.00 | 95 | 1014.2 |
| 20260906112443 | 72 | 36 | 0.0 | 0.0 | 0.00 | 0.10 | 0.00 | 95 | 1014.2 |
| 20260906112241 | 72 | 36 | 0.0 | 0.0 | 0.00 | 0.10 | 0.00 | 95 | 1014.1 |
| 20260906112043 | 72 | 36 | 0.0 | 0.0 | 0.00 | 0.10 | 0.00 | 95 | 1014.1 |
| 20260906111840 | 72 | 36 | 0.0 | 0.0 | 0.00 | 0.10 | 0.00 | 95 | 1014.1 |
| 20260906111439 | 72 | 36 | 0.0 | 0.0 | 0.00 | 0.10 | 0.00 | 95 | 1014.0 |
| 20260906111239 | 72 | 36 | 0.0 | 0.0 | 0.00 | 0.10 | 0.00 | 95 | 1014.0 |
| 20260906111039 | 72 | 36 | 0.0 | 0.0 | 0.00 | 0.10 | 0.00 | 95 | 1014.0 |
| 20260906110838 | 72 | 36 | 0.0 | 0.0 | 0.00 | 0.10 | 0.00 | 95 | 1014.0 |
| 20260906110635 | 72 | 36 | 0.0 | 0.0 | 0.00 | 0.10 | 0.00 | 95 | 1014.0 |
| 20260906110436 | 72 | 36 | 0.0 | 0.0 | 0.00 | 0.10 | 0.00 | 95 | 1014.0 |
| 20260906110233 | 72 | 36 | 0.0 | 0.0 | 0.00 | 0.10 | 0.00 | 95 | 1013.9 |
| 20260906110031 | 72 | 36 | 0.0 | 0.0 | 0.00 | 0.10 | 0.00 | 95 | 1013.9 |
| 20260906105831 | 72 | 36 | 0.0 | 0.0 | 0.00 | 0.10 | 0.00 | 95 | 1013.9 |
| 20260906105629 | 72 | 36 | 0.0 | 0.0 | 0.00 | 0.10 | 0.00 | 95 | 1013.9 |
| 20260906105228 | 72 | 36 | 0.0 | 0.0 | 0.00 | 0.10 | 0.00 | 95 | 1013.9 |
| 20260906105026 | 72 | 36 | 0.0 | 0.0 | 0.00 | 0.10 | 0.00 | 95 | 1013.8 |
| 20260906104823 | 72 | 36 | 0.0 | 0.0 | 0.00 | 0.10 | 0.00 | 95 | 1013.8 |
| 20260906104621 | 72 | 36 | 0.0 | 0.0 | 0.00 | 0.10 | 0.00 | 95 | 1013.8 |
| 20260906104422 | 72 | 36 | 0.0 | 0.0 | 0.00 | 0.10 | 0.00 | 95 | 1013.8 |
| 20260906104221 | 72 | 36 | 0.0 | 0.0 | 0.00 | 0.10 | 0.00 | 95 | 1013.7 |
| 20260906104018 | 72 | 36 | 0.0 | 0.0 | 0.00 | 0.10 | 0.00 | 95 | 1013.7 |
| 20260906103819 | 72 | 36 | 0.0 | 0.0 | 0.00 | 0.10 | 0.00 | 95 | 1013.6 |
| 20260906103618 | 72 | 36 | 0.0 | 0.0 | 0.00 | 0.10 | 0.00 | 95 | 1013.7 |
| 20260906103417 | 72 | 36 | 0.0 | 0.0 | 0.00 | 0.10 | 0.00 | 95 | 1013.6 |
| 20260906102813 | 72 | 36 | 0.0 | 0.0 | 0.00 | 0.10 | 0.00 | 95 | 1013.5 |
| 20260906102614 | 72 | 36 | 0.0 | 0.0 | 0.00 | 0.10 | 0.00 | 95 | 1013.5 |
| 20260906102413 | 72 | 36 | 0.0 | 0.0 | 0.00 | 0.10 | 0.00 | 95 | 1013.6 |
| 20260906102213 | 72 | 36 | 0.0 | 0.0 | 0.00 | 0.10 | 0.00 | 95 | 1013.6 |
| 20260906102014 | 72 | 36 | 0.0 | 0.0 | 0.00 | 0.10 | 0.00 | 95 | 1013.5 |
| 20260906101813 | 72 | 36 | 0.0 | 0.0 | 0.00 | 0.10 | 0.00 | 95 | 1013.5 |
| 20260906101612 | 72 | 36 | 0.0 | 0.0 | 0.00 | 0.10 | 0.00 | 95 | 1013.4 |
| 20260906101409 | 72 | 36 | 0.0 | 0.0 | 0.00 | 0.10 | 0.00 | 95 | 1013.4 |
| 20260906101206 | 72 | 36 | 0.0 | 0.0 | 0.00 | 0.10 | 0.00 | 95 | 1013.4 |
| 20260906101006 | 72 | 36 | 0.0 | 0.0 | 0.00 | 0.10 | 0.00 | 95 | 1013.4 |
| 20260906100804 | 72 | 36 | 0.0 | 0.0 | 0.00 | 0.10 | 0.00 | 95 | 1013.3 |
| 20260906100604 | 72 | 36 | 0.0 | 0.0 | 0.00 | 0.10 | 0.00 | 95 | 1013.3 |
| 20260906100402 | 72 | 36 | 0.0 | 0.0 | 0.00 | 0.10 | 0.00 | 95 | 1013.3 |
| 20260906100159 | 72 | 36 | 0.0 | 0.0 | 0.00 | 0.10 | 0.00 | 95 | 1013.3 |
| 20260906095957 | 72 | 36 | 0.0 | 0.0 | 0.00 | 0.10 | 0.00 | 95 | 1013.2 |
| 20260906095757 | 72 | 36 | 0.0 | 0.0 | 0.00 | 0.10 | 0.00 | 95 | 1013.2 |
| 20260906095555 | 72 | 36 | 0.0 | 0.0 | 0.00 | 0.10 | 0.00 | 95 | 1013.2 |
| 20260906095357 | 72 | 36 | 0.0 | 0.0 | 0.00 | 0.10 | 0.00 | 95 | 1013.2 |
| 20260906095155 | 72 | 36 | 0.0 | 0.0 | 0.00 | 0.10 | 0.00 | 95 | 1013.2 |
| 20260906094952 | 72 | 36 | 0.0 | 0.0 | 0.00 | 0.10 | 0.00 | 95 | 1013.2 |
| 20260906094552 | 72 | 36 | 0.0 | 0.0 | 0.00 | 0.10 | 0.00 | 95 | 1013.2 |
| 20260906094353 | 72 | 36 | 0.0 | 0.0 | 0.00 | 0.10 | 0.00 | 95 | 1013.1 |
| 20260906094148 | 72 | 36 | 0.0 | 0.0 | 0.00 | 0.10 | 0.00 | 95 | 1013.1 |
| 20260906093948 | 72 | 36 | 0.0 | 0.0 | 0.00 | 0.10 | 0.00 | 94 | 1013.1 |
| 20260906093748 | 72 | 36 | 0.0 | 0.0 | 0.00 | 0.10 | 0.00 | 94 | 1013.0 |
| 20260906093547 | 72 | 36 | 0.0 | 0.0 | 0.00 | 0.10 | 0.00 | 94 | 1013.0 |
| 20260906093346 | 72 | 36 | 0.0 | 0.0 | 0.00 | 0.10 | 0.00 | 94 | 1012.9 |
| 20260906093144 | 72 | 36 | 0.0 | 0.0 | 0.00 | 0.10 | 0.00 | 94 | 1012.9 |
| 20260906092943 | 72 | 36 | 0.0 | 0.0 | 0.00 | 0.10 | 0.00 | 94 | 1012.8 |
| 20260906092741 | 72 | 36 | 0.0 | 0.0 | 0.00 | 0.10 | 0.00 | 94 | 1012.9 |
| 20260906092538 | 72 | 36 | 0.0 | 0.0 | 0.00 | 0.10 | 0.00 | 94 | 1012.8 |
| 20260906091936 | 72 | 36 | 0.0 | 0.0 | 0.00 | 0.10 | 0.00 | 94 | 1012.7 |
| 20260906091531 | 72 | 36 | 0.0 | 0.0 | 0.00 | 0.10 | 0.00 | 94 | 1012.6 |
| 20260906091331 | 72 | 36 | 0.0 | 0.0 | 0.00 | 0.10 | 0.00 | 94 | 1012.6 |
| 20260906091129 | 72 | 36 | 0.0 | 0.0 | 0.00 | 0.10 | 0.00 | 94 | 1012.5 |
| 20260906090929 | 72 | 36 | 0.0 | 0.0 | 0.00 | 0.10 | 0.00 | 94 | 1012.6 |
| 20260906090729 | 72 | 36 | 0.0 | 0.0 | 0.00 | 0.10 | 0.00 | 94 | 1012.5 |
| 20260906090529 | 72 | 36 | 0.0 | 0.0 | 0.00 | 0.10 | 0.00 | 94 | 1012.5 |
| 20260906090329 | 72 | 36 | 0.0 | 0.0 | 0.00 | 0.10 | 0.00 | 94 | 1012.4 |
| 20260906090130 | 72 | 36 | 0.0 | 1.0 | 0.00 | 0.10 | 0.00 | 94 | 1012.4 |
| 20260906085926 | 72 | 36 | 0.0 | 1.0 | 0.00 | 0.10 | 0.00 | 94 | 1012.3 |
| 20260906085726 | 72 | 36 | 0.0 | 1.0 | 0.00 | 0.10 | 0.00 | 94 | 1012.3 |
| 20260906085321 | 72 | 36 | 0.0 | 1.0 | 0.00 | 0.10 | 0.00 | 94 | 1012.3 |
| 20260906085121 | 72 | 36 | 0.0 | 0.0 | 0.00 | 0.10 | 0.00 | 94 | 1012.3 |
| 20260906084921 | 72 | 36 | 0.0 | 0.0 | 0.00 | 0.10 | 0.00 | 94 | 1012.4 |
| 20260906084318 | 72 | 36 | 0.0 | 0.0 | 0.00 | 0.10 | 0.00 | 94 | 1012.4 |
| 20260906084118 | 72 | 36 | 0.0 | 0.0 | 0.00 | 0.10 | 0.00 | 94 | 1012.4 |
| 20260906083916 | 72 | 36 | 0.0 | 0.0 | 0.00 | 0.10 | 0.00 | 94 | 1012.3 |
| 20260906083716 | 72 | 36 | 0.0 | 0.0 | 0.00 | 0.10 | 0.00 | 94 | 1012.4 |
| 20260906083516 | 72 | 36 | 0.0 | 0.0 | 0.00 | 0.10 | 0.00 | 94 | 1012.4 |
| 20260906083315 | 72 | 36 | 0.0 | 0.0 | 0.00 | 0.10 | 0.00 | 94 | 1012.3 |
| 20260906083119 | 72 | 36 | 0.0 | 0.0 | 0.00 | 0.10 | 0.00 | 94 | 1012.4 |
| 20260906082916 | 72 | 36 | 0.0 | 0.0 | 0.00 | 0.10 | 0.00 | 94 | 1012.4 |
| 20260906082717 | 72 | 36 | 0.0 | 0.0 | 0.00 | 0.10 | 0.00 | 94 | 1012.4 |
| 20260906082514 | 72 | 36 | 0.0 | 0.0 | 0.00 | 0.10 | 0.00 | 94 | 1012.4 |
| 20260906082312 | 72 | 36 | 0.0 | 0.0 | 0.00 | 0.10 | 0.00 | 94 | 1012.4 |
| 20260906081912 | 72 | 36 | 0.0 | 0.0 | 0.00 | 0.10 | 0.00 | 94 | 1012.3 |
| 20260906081510 | 72 | 36 | 0.0 | 1.0 | 0.00 | 0.10 | 0.00 | 95 | 1012.4 |
| 20260906081311 | 72 | 36 | 0.0 | 1.0 | 0.00 | 0.10 | 0.00 | 94 | 1012.4 |
| 20260906081110 | 72 | 36 | 0.0 | 1.0 | 0.00 | 0.10 | 0.00 | 94 | 1012.4 |
| 20260906080908 | 72 | 36 | 0.0 | 1.0 | 0.00 | 0.10 | 0.00 | 95 | 1012.4 |
| 20260906080306 | 72 | 36 | 0.0 | 0.0 | 0.00 | 0.10 | 0.00 | 94 | 1012.3 |
| 20260906075905 | 72 | 36 | 0.0 | 0.0 | 0.00 | 0.10 | 0.00 | 94 | 1012.3 |
| 20260906075706 | 72 | 36 | 0.0 | 0.0 | 0.00 | 0.10 | 0.00 | 94 | 1012.2 |
| 20260906075505 | 72 | 36 | 0.0 | 0.0 | 0.00 | 0.10 | 0.00 | 94 | 1012.2 |
| 20260906075306 | 72 | 36 | 0.0 | 0.0 | 0.00 | 0.10 | 0.00 | 94 | 1012.3 |
| 20260906075105 | 72 | 36 | 0.0 | 0.0 | 0.00 | 0.10 | 0.00 | 94 | 1012.3 |
| 20260906074700 | 72 | 37 | 0.0 | 0.0 | 0.00 | 0.10 | 0.00 | 94 | 1012.2 |
| 20260906074501 | 72 | 36 | 0.0 | 1.0 | 0.00 | 0.10 | 0.00 | 94 | 1012.1 |
| 20260906074301 | 72 | 36 | 0.0 | 1.0 | 0.00 | 0.10 | 0.00 | 94 | 1012.0 |
| 20260906074102 | 72 | 36 | 0.0 | 1.0 | 0.00 | 0.10 | 0.00 | 94 | 1012.1 |
| 20260906073901 | 72 | 36 | 0.0 | 1.0 | 0.00 | 0.10 | 0.00 | 94 | 1012.0 |
| 20260906073701 | 72 | 36 | 0.0 | 1.0 | 0.00 | 0.10 | 0.00 | 94 | 1012.1 |
| 20260906073503 | 72 | 36 | 0.0 | 0.0 | 0.00 | 0.10 | 0.00 | 94 | 1012.0 |
| 20260906073302 | 72 | 36 | 0.0 | 0.0 | 0.00 | 0.10 | 0.00 | 94 | 1012.0 |
| 20260906073102 | 72 | 36 | 0.0 | 1.0 | 0.00 | 0.10 | 0.00 | 94 | 1012.0 |
| 20260906072700 | 72 | 36 | 0.0 | 1.0 | 0.00 | 0.10 | 0.00 | 94 | 1012.0 |
| 20260906072501 | 72 | 36 | 0.0 | 1.0 | 0.00 | 0.10 | 0.00 | 94 | 1012.1 |
| 20260906072305 | 72 | 36 | 0.0 | 1.0 | 0.00 | 0.10 | 0.00 | 94 | 1012.1 |
| 20260906072101 | 72 | 36 | 0.0 | 1.0 | 0.00 | 0.10 | 0.00 | 94 | 1012.1 |
| 20260906071701 | 72 | 36 | 0.0 | 0.0 | 0.00 | 0.10 | 0.00 | 94 | 1012.0 |
| 20260906071501 | 72 | 36 | 0.0 | 0.0 | 0.00 | 0.10 | 0.00 | 94 | 1012.0 |
| 20260906071100 | 72 | 36 | 0.0 | 0.0 | 0.00 | 0.10 | 0.00 | 94 | 1011.9 |
| 20260906070902 | 72 | 36 | 0.0 | 0.0 | 0.00 | 0.10 | 0.00 | 94 | 1011.9 |
| 20260906070701 | 72 | 36 | 0.0 | 0.0 | 0.00 | 0.10 | 0.00 | 94 | 1011.9 |
| 20260906070501 | 72 | 36 | 0.0 | 0.0 | 0.00 | 0.10 | 0.00 | 94 | 1011.9 |
| 20260906070303 | 72 | 36 | 0.0 | 0.0 | 0.00 | 0.10 | 0.00 | 94 | 1011.9 |
| 20260906065900 | 72 | 36 | 0.0 | 0.0 | 0.00 | 0.10 | 0.00 | 94 | 1011.9 |
| 20260906065700 | 72 | 36 | 0.0 | 0.0 | 0.00 | 0.10 | 0.00 | 94 | 1011.9 |
| 20260906065501 | 72 | 36 | 0.0 | 0.0 | 0.00 | 0.10 | 0.00 | 94 | 1012.0 |
| 20260906065305 | 72 | 36 | 0.0 | 0.0 | 0.00 | 0.10 | 0.00 | 94 | 1012.0 |
| 20260906065101 | 72 | 36 | 0.0 | 0.0 | 0.00 | 0.10 | 0.00 | 94 | 1012.1 |
| 20260906064900 | 72 | 36 | 0.0 | 0.0 | 0.00 | 0.10 | 0.00 | 94 | 1012.1 |
| 20260906064702 | 72 | 36 | 0.0 | 0.0 | 0.00 | 0.10 | 0.00 | 94 | 1012.2 |
| 20260906064300 | 72 | 36 | 0.0 | 0.0 | 0.00 | 0.10 | 0.00 | 94 | 1012.3 |
| 20260906064101 | 72 | 36 | 0.0 | 0.0 | 0.00 | 0.10 | 0.00 | 94 | 1012.3 |
| 20260906063903 | 72 | 36 | 0.0 | 0.0 | 0.00 | 0.10 | 0.00 | 94 | 1012.2 |
| 20260906063501 | 73 | 36 | 0.0 | 0.0 | 0.00 | 0.10 | 0.00 | 94 | 1012.2 |
| 20260906063302 | 73 | 36 | 0.0 | 0.0 | 0.00 | 0.10 | 0.00 | 94 | 1012.2 |
| 20260906063101 | 73 | 36 | 0.0 | 0.0 | 0.00 | 0.10 | 0.00 | 94 | 1012.2 |
| 20260906062501 | 73 | 36 | 0.0 | 0.0 | 0.00 | 0.10 | 0.00 | 94 | 1012.1 |
| 20260906062305 | 73 | 36 | 0.0 | 0.0 | 0.00 | 0.10 | 0.00 | 94 | 1012.1 |
| 20260906062103 | 73 | 36 | 0.0 | 0.0 | 0.00 | 0.10 | 0.00 | 94 | 1012.2 |
| 20260906061901 | 73 | 36 | 0.0 | 0.0 | 0.00 | 0.10 | 0.00 | 94 | 1012.2 |
| 20260906061500 | 73 | 36 | 0.0 | 0.0 | 0.00 | 0.10 | 0.00 | 94 | 1012.2 |
| 20260906061301 | 73 | 36 | 0.0 | 0.0 | 0.00 | 0.10 | 0.00 | 94 | 1012.2 |
| 20260906061101 | 73 | 36 | 0.0 | 0.0 | 0.00 | 0.10 | 0.00 | 94 | 1012.3 |
| 20260906060901 | 73 | 36 | 0.0 | 0.0 | 0.00 | 0.10 | 0.00 | 94 | 1012.3 |
| 20260906060700 | 73 | 36 | 0.0 | 0.0 | 0.00 | 0.10 | 0.00 | 94 | 1012.2 |
| 20260906060302 | 73 | 36 | 0.0 | 0.0 | 0.00 | 0.10 | 0.00 | 94 | 1012.2 |
| 20260906060100 | 73 | 36 | 0.0 | 0.0 | 0.00 | 0.10 | 0.00 | 94 | 1012.2 |
| 20260906055902 | 73 | 36 | 0.0 | 0.0 | 0.00 | 0.10 | 0.00 | 94 | 1012.3 |
| 20260906055701 | 73 | 36 | 0.0 | 0.0 | 0.00 | 0.10 | 0.00 | 94 | 1012.3 |
| 20260906055306 | 73 | 36 | 0.0 | 0.0 | 0.00 | 0.10 | 0.00 | 94 | 1012.3 |
| 20260906055100 | 73 | 36 | 0.0 | 0.0 | 0.00 | 0.10 | 0.00 | 94 | 1012.3 |
| 20260906054903 | 73 | 36 | 0.0 | 0.0 | 0.00 | 0.10 | 0.00 | 94 | 1012.3 |
| 20260906054702 | 73 | 36 | 0.0 | 0.0 | 0.00 | 0.10 | 0.00 | 94 | 1012.4 |
| 20260906054501 | 73 | 37 | 0.0 | 0.0 | 0.00 | 0.10 | 0.00 | 94 | 1012.4 |
| 20260906054301 | 73 | 36 | 0.0 | 0.0 | 0.00 | 0.10 | 0.00 | 94 | 1012.5 |
| 20260906054100 | 73 | 36 | 0.0 | 0.0 | 0.00 | 0.10 | 0.00 | 94 | 1012.5 |
| 20260906053702 | 73 | 36 | 0.0 | 0.0 | 0.00 | 0.10 | 0.00 | 94 | 1012.4 |
| 20260906053500 | 73 | 36 | 0.0 | 0.0 | 0.00 | 0.10 | 0.00 | 94 | 1012.4 |
| 20260906053101 | 73 | 36 | 0.0 | 0.0 | 0.00 | 0.10 | 0.00 | 94 | 1012.6 |
| 20260906052702 | 73 | 36 | 0.0 | 0.0 | 0.00 | 0.10 | 0.00 | 94 | 1012.6 |
| 20260906052500 | 73 | 36 | 0.0 | 0.0 | 0.00 | 0.10 | 0.00 | 94 | 1012.7 |
| 20260906052305 | 73 | 36 | 0.0 | 0.0 | 0.00 | 0.10 | 0.00 | 94 | 1012.7 |
| 20260906052100 | 73 | 36 | 0.0 | 0.0 | 0.00 | 0.10 | 0.00 | 94 | 1012.7 |
| 20260906051901 | 73 | 36 | 0.0 | 0.0 | 0.00 | 0.10 | 0.00 | 94 | 1012.8 |
| 20260906051700 | 73 | 36 | 0.0 | 0.0 | 0.00 | 0.10 | 0.00 | 94 | 1012.9 |
| 20260906051501 | 73 | 36 | 0.0 | 0.0 | 0.00 | 0.10 | 0.00 | 94 | 1012.8 |
| 20260906051101 | 73 | 36 | 0.0 | 0.0 | 0.00 | 0.10 | 0.00 | 93 | 1012.9 |
| 20260906050901 | 73 | 36 | 0.0 | 0.0 | 0.00 | 0.10 | 0.00 | 93 | 1012.8 |
| 20260906050700 | 73 | 36 | 0.0 | 0.0 | 0.00 | 0.10 | 0.00 | 94 | 1012.8 |
| 20260906050500 | 73 | 36 | 0.0 | 0.0 | 0.00 | 0.10 | 0.00 | 94 | 1012.8 |
| 20260906050258 | 73 | 36 | 0.0 | 0.0 | 0.00 | 0.10 | 0.00 | 94 | 1012.8 |
| 20260906050058 | 74 | 36 | 0.0 | 0.0 | 0.00 | 0.10 | 0.00 | 94 | 1012.7 |
| 20260906045857 | 74 | 36 | 0.0 | 0.0 | 0.00 | 0.10 | 0.00 | 94 | 1012.7 |
| 20260906045659 | 74 | 36 | 0.0 | 0.0 | 0.00 | 0.10 | 0.00 | 94 | 1012.8 |
| 20260906045455 | 74 | 36 | 0.0 | 0.0 | 0.00 | 0.10 | 0.00 | 94 | 1012.8 |
| 20260906045254 | 74 | 36 | 0.0 | 0.0 | 0.00 | 0.10 | 0.00 | 94 | 1012.9 |
| 20260906045050 | 74 | 36 | 0.0 | 0.0 | 0.00 | 0.10 | 0.00 | 94 | 1012.9 |
| 20260906044851 | 74 | 36 | 0.0 | 0.0 | 0.00 | 0.10 | 0.00 | 94 | 1012.9 |
| 20260906044451 | 74 | 36 | 0.0 | 0.0 | 0.00 | 0.10 | 0.00 | 94 | 1012.8 |
| 20260906044248 | 74 | 36 | 0.0 | 0.0 | 0.00 | 0.10 | 0.00 | 94 | 1012.9 |
| 20260906043848 | 74 | 36 | 0.0 | 0.0 | 0.00 | 0.10 | 0.00 | 94 | 1012.8 |
| 20260906043644 | 74 | 36 | 0.0 | 0.0 | 0.00 | 0.10 | 0.00 | 94 | 1012.9 |
| 20260906043444 | 74 | 36 | 0.0 | 0.0 | 0.00 | 0.10 | 0.00 | 94 | 1012.9 |
| 20260906043242 | 74 | 36 | 0.0 | 0.0 | 0.00 | 0.10 | 0.00 | 93 | 1013.0 |
| 20260906043038 | 74 | 36 | 0.0 | 0.0 | 0.00 | 0.10 | 0.00 | 93 | 1013.0 |
| 20260906042836 | 74 | 36 | 0.0 | 0.0 | 0.00 | 0.10 | 0.00 | 94 | 1013.0 |
| 20260906042636 | 74 | 36 | 0.0 | 0.0 | 0.00 | 0.10 | 0.00 | 93 | 1013.0 |
| 20260906042436 | 74 | 36 | 0.0 | 0.0 | 0.00 | 0.10 | 0.00 | 94 | 1013.0 |
| 20260906042236 | 74 | 36 | 0.0 | 0.0 | 0.00 | 0.10 | 0.00 | 94 | 1013.0 |
| 20260906042038 | 74 | 36 | 0.0 | 0.0 | 0.00 | 0.10 | 0.00 | 94 | 1013.0 |
| 20260906041837 | 74 | 36 | 0.0 | 0.0 | 0.00 | 0.10 | 0.00 | 94 | 1013.1 |
| 20260906041634 | 74 | 36 | 0.0 | 0.0 | 0.00 | 0.10 | 0.00 | 94 | 1013.1 |
| 20260906041031 | 74 | 36 | 0.0 | 0.0 | 0.00 | 0.10 | 0.00 | 94 | 1013.1 |
| 20260906040630 | 74 | 36 | 0.0 | 0.0 | 0.00 | 0.10 | 0.00 | 94 | 1013.1 |
| 20260906040427 | 74 | 36 | 0.0 | 0.0 | 0.00 | 0.10 | 0.00 | 94 | 1013.1 |
| 20260906040228 | 74 | 36 | 0.0 | 0.0 | 0.00 | 0.10 | 0.00 | 94 | 1013.1 |
| 20260906040024 | 74 | 36 | 0.0 | 0.0 | 0.00 | 0.10 | 0.00 | 94 | 1013.1 |
| 20260906035622 | 74 | 36 | 0.0 | 0.0 | 0.00 | 0.10 | 0.10 | 94 | 1013.2 |
| 20260906035423 | 74 | 36 | 0.0 | 0.0 | 0.00 | 0.10 | 0.10 | 94 | 1013.2 |
| 20260906035223 | 74 | 36 | 0.0 | 0.0 | 0.00 | 0.10 | 0.10 | 94 | 1013.2 |
| 20260906035022 | 74 | 36 | 0.0 | 0.0 | 0.00 | 0.10 | 0.10 | 94 | 1013.2 |
| 20260906034825 | 74 | 36 | 0.0 | 0.0 | 0.00 | 0.10 | 0.10 | 93 | 1013.1 |
| 20260906034625 | 74 | 36 | 0.0 | 0.0 | 0.00 | 0.10 | 0.10 | 93 | 1013.1 |
| 20260906034423 | 75 | 36 | 0.0 | 0.0 | 0.00 | 0.10 | 0.10 | 93 | 1013.0 |
| 20260906034224 | 75 | 36 | 0.0 | 0.0 | 0.00 | 0.10 | 0.10 | 93 | 1013.0 |
| 20260906034023 | 75 | 36 | 0.0 | 0.0 | 0.00 | 0.10 | 0.10 | 94 | 1013.0 |
| 20260906033822 | 75 | 36 | 0.0 | 0.0 | 0.00 | 0.10 | 0.10 | 94 | 1013.0 |
| 20260906033622 | 75 | 36 | 0.0 | 0.0 | 0.00 | 0.10 | 0.10 | 94 | 1013.1 |
| 20260906033424 | 75 | 36 | 0.0 | 0.0 | 0.00 | 0.10 | 0.10 | 94 | 1013.1 |
| 20260906033224 | 75 | 36 | 0.0 | 0.0 | 0.00 | 0.10 | 0.10 | 94 | 1013.2 |
| 20260906033022 | 75 | 36 | 0.0 | 0.0 | 0.00 | 0.10 | 0.10 | 94 | 1013.2 |
| 20260906032822 | 75 | 36 | 0.0 | 0.0 | 0.00 | 0.10 | 0.10 | 94 | 1013.2 |
| 20260906032623 | 75 | 36 | 0.0 | 0.0 | 0.00 | 0.10 | 0.10 | 94 | 1013.2 |
| 20260906032424 | 75 | 36 | 0.0 | 0.0 | 0.00 | 0.10 | 0.10 | 94 | 1013.2 |
| 20260906032224 | 75 | 36 | 0.0 | 0.0 | 0.00 | 0.10 | 0.10 | 94 | 1013.1 |
| 20260906032023 | 75 | 36 | 0.0 | 0.0 | 0.00 | 0.10 | 0.10 | 94 | 1013.1 |
| 20260906031822 | 75 | 36 | 0.0 | 0.0 | 0.00 | 0.10 | 0.10 | 94 | 1013.0 |
| 20260906031624 | 75 | 36 | 0.0 | 0.0 | 0.00 | 0.10 | 0.10 | 94 | 1013.1 |
| 20260906031422 | 75 | 36 | 0.0 | 0.0 | 0.00 | 0.10 | 0.10 | 94 | 1013.0 |
| 20260906031023 | 75 | 36 | 0.0 | 0.0 | 0.00 | 0.10 | 0.10 | 94 | 1013.0 |
| 20260906030823 | 75 | 36 | 0.0 | 0.0 | 0.00 | 0.10 | 0.10 | 94 | 1012.9 |
| 20260906030622 | 75 | 36 | 0.0 | 0.0 | 0.00 | 0.10 | 0.10 | 94 | 1013.0 |
| 20260906030424 | 75 | 36 | 0.0 | 0.0 | 0.00 | 0.10 | 0.10 | 94 | 1013.0 |
| 20260906030223 | 75 | 36 | 0.0 | 0.0 | 0.00 | 0.10 | 0.10 | 94 | 1013.1 |
| 20260906030022 | 75 | 36 | 0.0 | 0.0 | 0.00 | 0.10 | 0.10 | 94 | 1013.1 |
| 20260906025822 | 75 | 36 | 0.0 | 0.0 | 0.00 | 0.10 | 0.10 | 94 | 1013.2 |
| 20260906025623 | 75 | 36 | 0.0 | 0.0 | 0.00 | 0.10 | 0.10 | 94 | 1013.2 |
| 20260906025424 | 75 | 36 | 0.0 | 0.0 | 0.00 | 0.10 | 0.10 | 94 | 1013.2 |
| 20260906025022 | 75 | 36 | 0.0 | 0.0 | 0.00 | 0.10 | 0.10 | 94 | 1013.1 |
| 20260906024824 | 75 | 36 | 0.0 | 0.0 | 0.00 | 0.10 | 0.10 | 94 | 1013.1 |
| 20260906024423 | 75 | 36 | 0.0 | 0.0 | 0.00 | 0.10 | 0.10 | 94 | 1013.2 |
| 20260906024223 | 75 | 36 | 0.0 | 0.0 | 0.00 | 0.10 | 0.10 | 94 | 1013.1 |
| 20260906024023 | 75 | 36 | 0.0 | 0.0 | 0.00 | 0.10 | 0.10 | 94 | 1013.1 |
| 20260906023622 | 75 | 36 | 0.0 | 0.0 | 0.00 | 0.10 | 0.10 | 94 | 1013.1 |
| 20260906023222 | 76 | 36 | 0.0 | 0.0 | 0.00 | 0.10 | 0.10 | 94 | 1013.2 |
| 20260906023022 | 75 | 36 | 0.0 | 0.0 | 0.00 | 0.10 | 0.10 | 94 | 1013.1 |
| 20260906022824 | 75 | 37 | 0.0 | 0.0 | 0.00 | 0.10 | 0.10 | 94 | 1013.1 |
| 20260906022622 | 75 | 36 | 0.0 | 0.0 | 0.00 | 0.10 | 0.10 | 94 | 1013.1 |
| 20260906022221 | 76 | 36 | 0.0 | 0.0 | 0.00 | 0.10 | 0.10 | 94 | 1012.9 |
| 20260906022022 | 76 | 36 | 0.0 | 0.0 | 0.00 | 0.10 | 0.10 | 94 | 1012.8 |
| 20260906021821 | 76 | 36 | 0.0 | 0.0 | 0.00 | 0.10 | 0.10 | 94 | 1012.8 |
| 20260906021622 | 76 | 36 | 0.0 | 0.0 | 0.00 | 0.10 | 0.10 | 94 | 1012.8 |
| 20260906021221 | 76 | 36 | 0.0 | 0.0 | 0.00 | 0.10 | 0.10 | 94 | 1012.8 |
| 20260906021023 | 76 | 36 | 0.0 | 0.0 | 0.00 | 0.10 | 0.10 | 94 | 1012.7 |
| 20260906020420 | 76 | 36 | 0.0 | 0.0 | 0.00 | 0.10 | 0.10 | 94 | 1012.6 |
| 20260906020216 | 76 | 37 | 0.0 | 0.0 | 0.00 | 0.10 | 0.10 | 94 | 1012.5 |
| 20260906020016 | 76 | 36 | 0.0 | 0.0 | 0.00 | 0.10 | 0.10 | 94 | 1012.5 |
| 20260906015817 | 76 | 36 | 0.0 | 0.0 | 0.00 | 0.10 | 0.10 | 94 | 1012.6 |
| 20260906015615 | 76 | 36 | 0.0 | 0.0 | 0.00 | 0.10 | 0.10 | 94 | 1012.6 |
| 20260906015415 | 76 | 36 | 0.0 | 0.0 | 0.00 | 0.10 | 0.10 | 94 | 1012.6 |
| 20260906015214 | 76 | 36 | 0.0 | 0.0 | 0.00 | 0.10 | 0.10 | 94 | 1012.7 |
| 20260906014811 | 76 | 36 | 0.0 | 0.0 | 0.00 | 0.10 | 0.10 | 94 | 1012.8 |
| 20260906014611 | 76 | 36 | 0.0 | 0.0 | 0.00 | 0.10 | 0.10 | 94 | 1012.8 |
| 20260906014410 | 76 | 36 | 0.0 | 0.0 | 0.00 | 0.10 | 0.10 | 94 | 1012.8 |
| 20260906014210 | 76 | 36 | 0.0 | 0.0 | 0.00 | 0.10 | 0.10 | 94 | 1012.7 |
| 20260906013812 | 76 | 36 | 0.0 | 0.0 | 0.00 | 0.10 | 0.10 | 94 | 1012.8 |
| 20260906013608 | 76 | 36 | 0.0 | 0.0 | 0.00 | 0.10 | 0.10 | 94 | 1012.8 |
| 20260906013408 | 76 | 36 | 0.0 | 0.0 | 0.00 | 0.10 | 0.10 | 94 | 1012.8 |
| 20260906013206 | 76 | 36 | 0.0 | 0.0 | 0.00 | 0.10 | 0.10 | 94 | 1012.8 |
| 20260906013005 | 76 | 36 | 0.0 | 0.0 | 0.00 | 0.10 | 0.10 | 94 | 1012.8 |
| 20260906012600 | 76 | 36 | 0.0 | 0.0 | 0.00 | 0.10 | 0.10 | 94 | 1012.9 |
| 20260906012401 | 76 | 36 | 0.0 | 0.0 | 0.00 | 0.10 | 0.10 | 94 | 1012.9 |
| 20260906011958 | 76 | 36 | 0.0 | 0.0 | 0.00 | 0.10 | 0.10 | 94 | 1012.8 |
| 20260906011756 | 76 | 36 | 0.0 | 0.0 | 0.00 | 0.10 | 0.10 | 94 | 1012.8 |
| 20260906011153 | 76 | 36 | 0.0 | 0.0 | 0.00 | 0.10 | 0.10 | 94 | 1012.7 |
| 20260906010953 | 76 | 36 | 0.0 | 0.0 | 0.00 | 0.10 | 0.10 | 94 | 1012.7 |
| 20260906010750 | 76 | 36 | 0.0 | 0.0 | 0.00 | 0.10 | 0.10 | 94 | 1012.7 |
| 20260906010548 | 76 | 36 | 0.0 | 0.0 | 0.00 | 0.10 | 0.10 | 93 | 1012.6 |
| 20260906010348 | 76 | 36 | 0.0 | 0.0 | 0.00 | 0.10 | 0.10 | 94 | 1012.7 |
| 20260906010150 | 76 | 36 | 0.0 | 0.0 | 0.00 | 0.10 | 0.10 | 94 | 1012.6 |
| 20260906005950 | 76 | 36 | 0.0 | 0.0 | 0.00 | 0.10 | 0.10 | 94 | 1012.6 |
| 20260906005748 | 76 | 36 | 0.0 | 0.0 | 0.00 | 0.10 | 0.10 | 94 | 1012.6 |
| 20260906005547 | 76 | 36 | 0.0 | 0.0 | 0.00 | 0.10 | 0.10 | 94 | 1012.6 |
| 20260906004942 | 76 | 36 | 0.0 | 0.0 | 0.00 | 0.10 | 0.10 | 93 | 1012.6 |
| 20260906004740 | 76 | 36 | 0.0 | 0.0 | 0.00 | 0.10 | 0.10 | 93 | 1012.6 |
| 20260906004538 | 76 | 36 | 0.0 | 0.0 | 0.00 | 0.10 | 0.10 | 93 | 1012.5 |
| 20260906004336 | 76 | 36 | 0.0 | 0.0 | 0.00 | 0.10 | 0.10 | 93 | 1012.5 |
| 20260906003935 | 76 | 36 | 0.0 | 0.0 | 0.00 | 0.10 | 0.10 | 93 | 1012.4 |
| 20260906003732 | 76 | 36 | 0.0 | 0.0 | 0.00 | 0.10 | 0.10 | 93 | 1012.4 |
| 20260906003529 | 76 | 36 | 0.0 | 0.0 | 0.00 | 0.10 | 0.10 | 94 | 1012.3 |
| 20260906003328 | 76 | 36 | 0.0 | 0.0 | 0.00 | 0.10 | 0.10 | 94 | 1012.3 |
| 20260906003124 | 76 | 36 | 0.0 | 0.0 | 0.00 | 0.10 | 0.10 | 93 | 1012.3 |
| 20260906002926 | 76 | 36 | 0.0 | 0.0 | 0.00 | 0.10 | 0.10 | 93 | 1012.2 |
| 20260906002722 | 76 | 36 | 0.0 | 0.0 | 0.00 | 0.10 | 0.10 | 94 | 1012.2 |
| 20260906002521 | 76 | 36 | 0.0 | 0.0 | 0.00 | 0.10 | 0.10 | 93 | 1012.2 |
| 20260906002319 | 76 | 36 | 0.0 | 0.0 | 0.00 | 0.10 | 0.10 | 93 | 1012.2 |
| 20260906001916 | 76 | 36 | 0.0 | 0.0 | 0.00 | 0.10 | 0.10 | 94 | 1012.0 |
| 20260906001716 | 76 | 36 | 0.0 | 0.0 | 0.00 | 0.10 | 0.10 | 94 | 1012.0 |
| 20260906001513 | 76 | 36 | 0.0 | 0.0 | 0.00 | 0.10 | 0.10 | 93 | 1012.0 |
| 20260906001109 | 77 | 36 | 0.0 | 0.0 | 0.00 | 0.10 | 0.10 | 93 | 1012.0 |
| 20260906000908 | 77 | 36 | 0.0 | 0.0 | 0.00 | 0.10 | 0.10 | 93 | 1011.9 |
| 20260906000706 | 77 | 36 | 0.0 | 0.0 | 0.00 | 0.10 | 0.10 | 93 | 1011.8 |
| 20260906000506 | 77 | 36 | 0.0 | 0.0 | 0.00 | 0.10 | 0.10 | 93 | 1011.8 |
| 20260906000304 | 77 | 36 | 0.0 | 0.0 | 0.00 | 0.10 | 0.10 | 93 | 1011.9 |
| 20260906000107 | 77 | 36 | 0.0 | 0.0 | 0.00 | 0.10 | 0.10 | 93 | 1011.9 |
| 20260905235905 | 77 | 36 | 0.0 | 0.0 | 0.00 | 0.10 | 0.10 | 93 | 1011.8 |
| 20260905235704 | 77 | 36 | 0.0 | 0.0 | 0.00 | 0.10 | 0.10 | 93 | 1011.9 |
| 20260905235502 | 77 | 36 | 0.0 | 0.0 | 0.00 | 0.10 | 0.10 | 93 | 1011.9 |
| 20260905235306 | 77 | 36 | 0.0 | 0.0 | 0.00 | 0.10 | 0.10 | 93 | 1011.8 |
| 20260905235102 | 77 | 36 | 0.0 | 0.0 | 0.00 | 0.10 | 0.10 | 93 | 1011.8 |
| 20260905234900 | 77 | 36 | 0.0 | 0.0 | 0.00 | 0.10 | 0.10 | 93 | 1011.7 |
| 20260905234700 | 77 | 36 | 0.0 | 0.0 | 0.00 | 0.10 | 0.10 | 93 | 1011.7 |
| 20260905234501 | 77 | 36 | 0.0 | 0.0 | 0.00 | 0.10 | 0.10 | 93 | 1011.7 |
| 20260905234300 | 77 | 36 | 0.0 | 0.0 | 0.00 | 0.10 | 0.10 | 93 | 1011.7 |
| 20260905233900 | 77 | 36 | 0.0 | 0.0 | 0.00 | 0.10 | 0.10 | 93 | 1011.6 |
| 20260905233658 | 77 | 36 | 0.0 | 0.0 | 0.00 | 0.10 | 0.10 | 93 | 1011.5 |
| 20260905233457 | 77 | 36 | 0.0 | 0.0 | 0.00 | 0.10 | 0.10 | 93 | 1011.6 |
| 20260905233257 | 77 | 36 | 0.0 | 0.0 | 0.00 | 0.10 | 0.10 | 93 | 1011.5 |
| 20260905233056 | 77 | 36 | 0.0 | 0.0 | 0.00 | 0.10 | 0.10 | 93 | 1011.4 |
| 20260905232854 | 77 | 36 | 0.0 | 0.0 | 0.00 | 0.10 | 0.10 | 93 | 1011.3 |
| 20260905232656 | 77 | 36 | 0.0 | 0.0 | 0.00 | 0.10 | 0.10 | 92 | 1011.3 |
| 20260905232256 | 77 | 36 | 0.0 | 0.0 | 0.00 | 0.10 | 0.10 | 93 | 1011.3 |
| 20260905232055 | 78 | 36 | 0.0 | 0.0 | 0.00 | 0.10 | 0.10 | 93 | 1011.4 |
| 20260905231852 | 78 | 36 | 0.0 | 0.0 | 0.00 | 0.10 | 0.10 | 93 | 1011.4 |
| 20260905231650 | 78 | 36 | 0.0 | 0.0 | 0.00 | 0.10 | 0.10 | 93 | 1011.3 |
| 20260905231449 | 78 | 36 | 0.0 | 0.0 | 0.00 | 0.10 | 0.10 | 93 | 1011.3 |
| 20260905231246 | 78 | 36 | 0.0 | 0.0 | 0.00 | 0.10 | 0.10 | 93 | 1011.3 |
| 20260905231046 | 78 | 36 | 0.0 | 0.0 | 0.00 | 0.10 | 0.10 | 93 | 1011.2 |
| 20260905230847 | 78 | 36 | 0.0 | 0.0 | 0.00 | 0.10 | 0.10 | 93 | 1011.1 |
| 20260905230647 | 78 | 36 | 0.0 | 0.0 | 0.00 | 0.10 | 0.10 | 93 | 1011.1 |
| 20260905230243 | 78 | 36 | 0.0 | 0.0 | 0.00 | 0.10 | 0.10 | 93 | 1011.0 |
| 20260905225638 | 78 | 36 | 0.0 | 0.0 | 0.00 | 0.10 | 0.10 | 93 | 1011.0 |
| 20260905225436 | 78 | 36 | 0.0 | 0.0 | 0.00 | 0.10 | 0.10 | 93 | 1010.9 |
| 20260905225235 | 78 | 36 | 0.0 | 0.0 | 0.00 | 0.10 | 0.10 | 93 | 1010.9 |
| 20260905225035 | 78 | 36 | 0.0 | 0.0 | 0.00 | 0.10 | 0.10 | 93 | 1010.8 |
| 20260905224835 | 78 | 36 | 0.0 | 0.0 | 0.00 | 0.10 | 0.10 | 93 | 1010.7 |
| 20260905224632 | 78 | 36 | 0.0 | 0.0 | 0.00 | 0.10 | 0.10 | 93 | 1010.8 |
| 20260905224430 | 78 | 36 | 0.0 | 0.0 | 0.00 | 0.10 | 0.10 | 93 | 1010.9 |
| 20260905224028 | 78 | 36 | 0.0 | 0.0 | 0.00 | 0.10 | 0.10 | 93 | 1010.9 |
| 20260905223827 | 78 | 36 | 0.0 | 0.0 | 0.00 | 0.10 | 0.10 | 93 | 1011.0 |
| 20260905223626 | 78 | 36 | 0.0 | 0.0 | 0.00 | 0.10 | 0.10 | 93 | 1011.1 |
| 20260905223426 | 78 | 36 | 0.0 | 0.0 | 0.00 | 0.10 | 0.10 | 93 | 1011.1 |
| 20260905223227 | 78 | 36 | 0.0 | 0.0 | 0.00 | 0.10 | 0.10 | 93 | 1011.1 |
| 20260905223027 | 78 | 36 | 0.0 | 0.0 | 0.00 | 0.10 | 0.10 | 93 | 1011.1 |
| 20260905222823 | 78 | 36 | 0.0 | 0.0 | 0.00 | 0.10 | 0.10 | 93 | 1011.2 |
| 20260905222622 | 78 | 36 | 0.0 | 0.0 | 0.00 | 0.10 | 0.10 | 94 | 1011.3 |
| 20260905222422 | 78 | 36 | 0.0 | 0.0 | 0.00 | 0.10 | 0.10 | 94 | 1011.3 |
| 20260905222223 | 78 | 36 | 0.0 | 0.0 | 0.00 | 0.10 | 0.10 | 94 | 1011.4 |
| 20260905222023 | 78 | 36 | 0.0 | 0.0 | 0.00 | 0.10 | 0.10 | 94 | 1011.4 |
| 20260905221820 | 78 | 36 | 0.0 | 0.0 | 0.00 | 0.10 | 0.10 | 94 | 1011.4 |
| 20260905221620 | 78 | 36 | 0.0 | 0.0 | 0.00 | 0.10 | 0.10 | 94 | 1011.4 |
| 20260905221421 | 78 | 36 | 0.0 | 0.0 | 0.00 | 0.10 | 0.10 | 94 | 1011.4 |
| 20260905221220 | 78 | 36 | 0.0 | 0.0 | 0.00 | 0.10 | 0.10 | 94 | 1011.3 |
| 20260905220819 | 77 | 36 | 0.0 | 0.0 | 0.00 | 0.10 | 0.10 | 93 | 1011.3 |
| 20260905220418 | 77 | 36 | 0.0 | 0.0 | 0.00 | 0.10 | 0.10 | 93 | 1011.2 |
| 20260905220219 | 77 | 36 | 0.0 | 0.0 | 0.00 | 0.10 | 0.10 | 93 | 1011.1 |
| 20260905215814 | 77 | 36 | 0.0 | 0.0 | 0.00 | 0.10 | 0.10 | 93 | 1011.1 |
| 20260905215613 | 77 | 36 | 0.0 | 0.0 | 0.00 | 0.10 | 0.10 | 93 | 1011.1 |
| 20260905215409 | 77 | 36 | 0.0 | 0.0 | 0.00 | 0.10 | 0.10 | 93 | 1011.1 |
| 20260905215210 | 77 | 36 | 0.0 | 0.0 | 0.00 | 0.10 | 0.10 | 93 | 1011.1 |
| 20260905215010 | 77 | 36 | 0.0 | 0.0 | 0.00 | 0.10 | 0.10 | 93 | 1011.0 |
| 20260905214809 | 77 | 36 | 0.0 | 1.0 | 0.00 | 0.10 | 0.10 | 93 | 1011.0 |
| 20260905214610 | 77 | 36 | 0.0 | 1.0 | 0.00 | 0.10 | 0.10 | 93 | 1010.9 |
| 20260905214408 | 77 | 36 | 0.0 | 1.0 | 0.00 | 0.10 | 0.10 | 93 | 1010.9 |
| 20260905214006 | 77 | 36 | 0.0 | 2.0 | 0.00 | 0.10 | 0.10 | 92 | 1010.9 |
| 20260905213807 | 77 | 36 | 0.0 | 2.0 | 0.00 | 0.10 | 0.10 | 92 | 1010.9 |
| 20260905213606 | 77 | 36 | 0.0 | 2.0 | 0.00 | 0.10 | 0.10 | 92 | 1010.9 |
| 20260905213406 | 77 | 36 | 0.0 | 2.0 | 0.00 | 0.10 | 0.10 | 92 | 1010.9 |
| 20260905213206 | 77 | 36 | 0.0 | 2.0 | 0.00 | 0.10 | 0.10 | 92 | 1010.8 |
| 20260905213006 | 77 | 36 | 0.0 | 1.0 | 0.00 | 0.10 | 0.10 | 93 | 1010.8 |
| 20260905212807 | 77 | 36 | 0.0 | 1.0 | 0.00 | 0.10 | 0.10 | 93 | 1010.7 |
| 20260905212604 | 77 | 36 | 0.0 | 1.0 | 0.00 | 0.10 | 0.10 | 92 | 1010.7 |
| 20260905212405 | 77 | 36 | 0.0 | 1.0 | 0.00 | 0.10 | 0.10 | 92 | 1010.7 |
| 20260905212204 | 77 | 36 | 0.0 | 1.0 | 0.00 | 0.10 | 0.10 | 92 | 1010.7 |
| 20260905212004 | 77 | 37 | 0.0 | 1.0 | 0.00 | 0.10 | 0.10 | 92 | 1010.7 |
| 20260905211804 | 77 | 36 | 0.0 | 1.0 | 0.00 | 0.10 | 0.10 | 92 | 1010.7 |
| 20260905211604 | 77 | 36 | 0.0 | 1.0 | 0.00 | 0.10 | 0.10 | 92 | 1010.6 |
| 20260905211402 | 77 | 36 | 0.0 | 1.0 | 0.00 | 0.10 | 0.10 | 92 | 1010.7 |
| 20260905210801 | 77 | 36 | 0.0 | 1.0 | 0.00 | 0.10 | 0.10 | 92 | 1010.9 |
| 20260905210600 | 77 | 36 | 0.0 | 1.0 | 0.00 | 0.10 | 0.10 | 92 | 1011.0 |
| 20260905210400 | 77 | 36 | 0.0 | 1.0 | 0.00 | 0.10 | 0.10 | 92 | 1011.0 |
| 20260905210200 | 77 | 36 | 0.0 | 1.0 | 0.00 | 0.10 | 0.10 | 92 | 1011.1 |
| 20260905205757 | 77 | 36 | 0.0 | 1.0 | 0.00 | 0.10 | 0.10 | 92 | 1011.0 |
| 20260905205554 | 77 | 36 | 0.0 | 1.0 | 0.00 | 0.10 | 0.10 | 92 | 1011.1 |
| 20260905205153 | 77 | 36 | 0.0 | 1.0 | 0.00 | 0.10 | 0.10 | 92 | 1011.0 |
| 20260905204753 | 77 | 36 | 0.0 | 0.0 | 0.00 | 0.10 | 0.10 | 92 | 1010.9 |
| 20260905204351 | 77 | 36 | 0.0 | 1.0 | 0.00 | 0.10 | 0.10 | 92 | 1010.9 |
| 20260905204148 | 77 | 36 | 0.0 | 1.0 | 0.00 | 0.10 | 0.10 | 92 | 1011.0 |
| 20260905203946 | 77 | 36 | 0.0 | 1.0 | 0.01 | 0.10 | 0.10 | 92 | 1011.1 |
| 20260905203745 | 77 | 36 | 0.0 | 1.0 | 0.01 | 0.10 | 0.10 | 92 | 1011.1 |
| 20260905203544 | 77 | 36 | 0.0 | 1.0 | 0.01 | 0.10 | 0.10 | 92 | 1011.0 |
| 20260905203344 | 77 | 36 | 0.0 | 1.0 | 0.01 | 0.10 | 0.10 | 91 | 1010.9 |
| 20260905202942 | 77 | 36 | 0.0 | 1.0 | 0.01 | 0.10 | 0.10 | 91 | 1010.8 |
| 20260905202740 | 77 | 36 | 0.0 | 0.0 | 0.01 | 0.10 | 0.10 | 91 | 1010.7 |
| 20260905202540 | 77 | 36 | 0.0 | 0.0 | 0.01 | 0.10 | 0.10 | 91 | 1010.7 |
| 20260905201935 | 77 | 36 | 0.0 | 0.0 | 0.10 | 0.10 | 0.10 | 91 | 1010.7 |
| 20260905201732 | 77 | 36 | 0.0 | 0.0 | 0.10 | 0.10 | 0.10 | 91 | 1010.7 |
| 20260905201530 | 77 | 36 | 0.0 | 1.0 | 0.10 | 0.10 | 0.10 | 91 | 1010.7 |
| 20260905201329 | 78 | 36 | 0.0 | 1.0 | 0.10 | 0.10 | 0.10 | 91 | 1010.8 |
| 20260905201128 | 77 | 36 | 0.0 | 1.0 | 0.10 | 0.10 | 0.10 | 91 | 1010.8 |
| 20260905200927 | 78 | 36 | 0.0 | 1.0 | 0.10 | 0.10 | 0.10 | 91 | 1010.9 |
| 20260905200726 | 78 | 36 | 0.0 | 1.0 | 0.10 | 0.10 | 0.10 | 90 | 1011.0 |
| 20260905200527 | 78 | 36 | 0.0 | 1.0 | 0.10 | 0.10 | 0.10 | 90 | 1011.0 |
| 20260905200326 | 78 | 36 | 0.0 | 1.0 | 0.10 | 0.10 | 0.10 | 90 | 1011.1 |
| 20260905200126 | 78 | 36 | 0.0 | 0.0 | 0.10 | 0.10 | 0.10 | 89 | 1011.2 |
| 20260905195926 | 78 | 36 | 0.0 | 0.0 | 0.10 | 0.10 | 0.10 | 89 | 1011.4 |
| 20260905195725 | 78 | 36 | 0.0 | 0.0 | 0.10 | 0.10 | 0.10 | 89 | 1011.7 |
| 20260905195527 | 78 | 36 | 0.0 | 0.0 | 0.10 | 0.10 | 0.10 | 88 | 1011.8 |
| 20260905195325 | 78 | 36 | 0.0 | 0.0 | 0.10 | 0.10 | 0.10 | 89 | 1011.9 |
| 20260905194921 | 78 | 36 | 0.0 | 2.0 | 0.10 | 0.10 | 0.10 | 87 | 1011.9 |
| 20260905194518 | 79 | 36 | 0.0 | 2.0 | 0.10 | 0.10 | 0.10 | 86 | 1011.8 |
| 20260905194318 | 79 | 36 | 0.0 | 2.0 | 0.10 | 0.10 | 0.10 | 85 | 1011.7 |
| 20260905194119 | 80 | 36 | 0.0 | 2.0 | 0.09 | 0.09 | 0.10 | 85 | 1011.6 |
| 20260905193918 | 80 | 36 | 0.0 | 2.0 | 0.09 | 0.09 | 0.09 | 85 | 1011.7 |
| 20260905193718 | 80 | 36 | 1.0 | 2.0 | 0.09 | 0.09 | 0.09 | 83 | 1011.8 |
| 20260905193518 | 81 | 36 | 1.0 | 3.0 | 0.09 | 0.09 | 0.09 | 82 | 1011.8 |
| 20260905193318 | 81 | 35 | 1.0 | 3.0 | 0.09 | 0.09 | 0.09 | 81 | 1011.8 |
| 20260905193119 | 82 | 0 | 1.0 | 3.0 | 0.09 | 0.09 | 0.09 | 80 | 1012.0 |
| 20260905192919 | 82 | 0 | 1.0 | 3.0 | 0.09 | 0.09 | 0.09 | 79 | 1012.0 |
| 20260905192718 | 83 | 0 | 1.0 | 5.0 | 0.09 | 0.09 | 0.09 | 77 | 1012.2 |
| 20260905192518 | 84 | 0 | 1.0 | 5.0 | 0.08 | 0.08 | 0.09 | 77 | 1012.2 |
| 20260905192319 | 84 | 0 | 2.0 | 5.0 | 0.03 | 0.03 | 0.05 | 75 | 1012.3 |
| 20260905192118 | 84 | 0 | 2.0 | 5.0 | 0.01 | 0.01 | 0.01 | 71 | 1012.4 |
| 20260905191919 | 85 | 5 | 2.0 | 5.0 | 0.00 | 0.00 | 0.00 | 69 | 1012.3 |
| 20260905191718 | 85 | 345 | 2.0 | 5.0 | 0.00 | 0.00 | 0.00 | 68 | 1012.2 |
| 20260905191319 | 86 | 241 | 1.0 | 5.0 | 0.00 | 0.00 | 0.00 | 68 | 1011.7 |
| 20260905191116 | 86 | 196 | 2.0 | 5.0 | 0.00 | 0.00 | 0.00 | 67 | 1011.3 |
| 20260905190917 | 87 | 196 | 2.0 | 5.0 | 0.00 | 0.00 | 0.00 | 66 | 1011.0 |
| 20260905190714 | 87 | 196 | 2.0 | 10.0 | 0.00 | 0.00 | 0.00 | 64 | 1011.1 |
| 20260905190514 | 87 | 24 | 3.0 | 10.0 | 0.00 | 0.00 | 0.00 | 64 | 1011.1 |
| 20260905190316 | 88 | 38 | 2.0 | 10.0 | 0.00 | 0.00 | 0.00 | 64 | 1011.3 |
| 20260905190113 | 88 | 94 | 2.0 | 10.0 | 0.00 | 0.00 | 0.00 | 64 | 1011.4 |
| 20260905185912 | 89 | 58 | 1.0 | 10.0 | 0.00 | 0.00 | 0.00 | 63 | 1011.3 |
| 20260905185711 | 89 | 66 | 1.0 | 8.0 | 0.00 | 0.00 | 0.00 | 66 | 1011.5 |
| 20260905185511 | 89 | 321 | 0.0 | 7.0 | 0.00 | 0.00 | 0.00 | 70 | 1011.3 |
| 20260905184909 | 90 | 95 | 0.0 | 1.0 | 0.00 | 0.00 | 0.00 | 69 | 1010.7 |
| 20260905184710 | 90 | 94 | 0.0 | 1.0 | 0.00 | 0.00 | 0.00 | 69 | 1010.6 |
| 20260905184508 | 91 | 95 | 0.0 | 1.0 | 0.00 | 0.00 | 0.00 | 68 | 1010.5 |
| 20260905184308 | 91 | 94 | 0.0 | 1.0 | 0.00 | 0.00 | 0.00 | 68 | 1010.6 |
| 20260905184109 | 91 | 95 | 0.0 | 1.0 | 0.00 | 0.00 | 0.00 | 67 | 1010.6 |
| 20260905183907 | 91 | 95 | 0.0 | 1.0 | 0.00 | 0.00 | 0.00 | 67 | 1010.6 |
| 20260905183709 | 91 | 95 | 0.0 | 1.0 | 0.00 | 0.00 | 0.00 | 66 | 1010.7 |
| 20260905183509 | 92 | 94 | 0.0 | 2.0 | 0.00 | 0.00 | 0.00 | 64 | 1010.7 |